Hourly Data Report for October 07, 2015

All times are specified in Local Standard Time (LST). Add 1 hour to adjust for Daylight Saving Time where and when it is observed.

SAINT JOHN A
NEW BRUNSWICK

45°18'58.000" N
65°53'24.000" W
108.80 m
8104901
71609
YSJ

Download Data

Hourly Data (October 2015)
Hourly Data Report for October 7, 2015
Temp Definition
°C
Dew Point Temp Definition
°C
Rel Hum Definition
%
Wind Dir Definition
10's deg

Wind Spd Definition
km/h
Visibility Definition
km
Stn Press Definition
kPa
Hmdx Definition


Wind Chill Definition


Weather Definition


TIME
00:00 Legend Double Dagger 3.9 3.9 100 36 2 0.8 99.79     Fog
01:00 Legend Double Dagger 2.8 2.8 100 36 2 24.1 99.75     LegendNANA
02:00 Legend Double Dagger 2.1 2.1 100 6 4 24.1 99.75     Clear
03:00 Legend Double Dagger 2.9 2.9 100 2 4 24.1 99.72     LegendNANA
04:00 Legend Double Dagger 5.2 5.2 100 2 6 24.1 99.72     LegendNANA
05:00 Legend Double Dagger 6.2 5.8 97 36 11 24.1 99.74     Clear
06:00 Legend Double Dagger 5.9 5.3 96 35 12 24.1 99.78     LegendNANA
07:00 Legend Double Dagger 5.5 5.1 97 2 4 24.1 99.79     LegendNANA
08:00 Legend Double Dagger 9.0 7.5 90 36 9 24.1 99.80     Mainly Clear
09:00 Legend Double Dagger 10.8 6.6 75 34 10 24.1 99.82     LegendNANA
10:00 Legend Double Dagger 12.4 6.3 66 31 6 24.1 99.81     LegendNANA
11:00 Legend Double Dagger 14.5 5.6 55 27 15 24.1 99.77     Mainly Clear
12:00 Legend Double Dagger 15.4 6.2 54 31 18 24.1 99.73     LegendNANA
13:00 Legend Double Dagger 16.2 7.5 56 26 12 24.1 99.70     LegendNANA
14:00 Legend Double Dagger 17.0 6.6 50 29 16 24.1 99.64     Mainly Clear
15:00 Legend Double Dagger 17.5 6.8 49 30 16 24.1 99.62     LegendNANA
16:00 Legend Double Dagger 17.3 6.9 50 29 15 24.1 99.60     LegendNANA
17:00 Legend Double Dagger 16.2 7.2 55 29 11 24.1 99.65     Mainly Clear
18:00 Legend Double Dagger 11.2 9.0 86 21 13 24.1 99.69     LegendNANA
19:00 Legend Double Dagger 10.1 8.7 91 36 3 24.1 99.74     LegendNANA
20:00 Legend Double Dagger 8.1 7.4 95 14 5 24.1 99.73     Mainly Clear
21:00 Legend Double Dagger 6.0 5.4 96 0 1 24.1 99.75     LegendNANA
22:00 Legend Double Dagger 4.4 4.0 97 36 3 24.1 99.76     LegendNANA
23:00 Legend Double Dagger 4.2 3.8 97 36 2 24.1 99.78     Mainly Clear

Notes on Data Quality.

Legend

  • E = Estimated
  • M = Missing
  • NA = Not Available
  • ‡ = Partner data that is not subject to review by the National Climate Archives
Date modified: